Probability
2 1 0 0 0 1 3 2 1 0 0 0 0 0 0 0 0 0 0 0 0 0 0 0 0 1 2 3 3 3 3 3 3 1 1 2 3 3 1 0 0 0 0
2 1 0 0 1 2 3 2 1 0 0 0 0 0 0 0 0 0 0 0 0 0 0 0 0 1 1 2 3 3 4 4 3 2 1 1 2 3 2 1 0 0 0
1 1 1 0 1 2 3 2 1 0 0 0 0 0 0 0 0 0 0 0 0 0 0 0 0 0 0 1 2 3 4 4 3 3 2 1 1 2 3 2 1 0 0
2 2 2 1 1 2 2 2 1 0 0 0 0 0 0 0 0 0 0 0 0 0 0 0 0 0 0 0 1 2 3 2 2 3 3 2 1 1 2 2 1 0 0
3 3 3 3 2 2 1 1 0 0 0 0 0 0 0 0 0 0 0 0 0 0 0 0 0 0 0 0 0 1 1 0 1 2 3 3 2 1 1 2 2 1 0
3 3 3 3 3 2 1 0 0 0 0 0 0 0 0 0 0 0 0 0 0 0 0 0 0 0 0 0 0 0 0 0 0 1 1 2 2 1 1 2 2 1 0
3 3 3 2 1 1 0 0 0 0 0 0 0 0 0 0 0 0 0 0 0 0 0 0 0 0 0 0 0 0 0 0 0 0 0 1 2 2 1 1 1 1 0
3 3 2 1 0 0 0 0 0 0 0 0 0 0 0 0 0 0 0 0 0 0 0 0 0 0 0 0 0 0 0 0 0 0 0 0 1 2 1 1 0 0 0
3 2 1 0 0 0 0 0 0 0 0 0 0 0 0 0 0 0 0 0 0 0 0 0 0 0 0 0 0 0 0 0 1 0 0 0 0 1 1 0 0 0 0
3 2 1 0 0 0 0 0 0 0 0 0 0 0 0 0 0 0 0 0 0 0 0 0 0 0 0 0 0 0 0 0 0 0 0 0 0 0 0 0 0 0 0
3 2 1 0 0 0 0 0 0 0 0 0 0 0 0 0 0 0 0 0 0 0 0 0 0 0 0 0 0 0 0 0 0 0 1 0 0 0 0 0 0 0 0
2 2 1 0 0 0 0 0 0 0 0 0 0 0 0 0 0 0 0 0 0 0 0 0 0 0 0 0 0 0 0 0 0 0 0 0 0 0 0 0 0 0 0
1 1 0 0 0 0 0 0 0 0 0 0 0 0 0 0 0 0 0 0 0 0 0 0 0 0 0 0 0 0 0 0 0 0 0 0 0 0 0 0 0 0 0
0 0 0 0 0 0 0 0 0 0 0 0 0 0 0 0 0 0 0 0 0 0 0 0 0 0 0 0 0 0 0 0 0 0 0 0 0 0 0 0 0 0 0
0 0 0 0 0 0 0 0 0 0 0 0 0 0 0 0 0 0 0 0 0 0 0 0 0 0 0 0 0 0 0 0 0 0 0 0 0 0 0 0 0 0 0
0 0 0 0 0 0 0 0 0 0 0 0 0 0 0 0 0 0 0 0 0 0 0 0 0 0 0 0 0 0 0 0 0 0 0 0 0 0 0 0 0 0 0
0 0 0 0 0 0 0 0 0 0 0 0 0 0 0 0 0 0 0 0 0 0 0 0 0 0 0 0 0 0 0 0 0 0 0 0 0 0 0 0 0 0 0
0 0 0 0 0 0 0 0 0 0 0 0 0 0 0 0 0 0 0 0 0 0 0 0 0 0 0 0 0 0 0 0 0 0 0 0 0 0 0 0 0 0 0
0 0 0 0 0 0 0 0 0 0 0 0 0 0 0 0 0 0 0 0 0 0 0 0 0 0 0 0 0 0 0 0 0 0 0 0 0 0 0 0 0 0 0
0 0 0 0 0 0 0 0 0 0 0 0 0 0 0 0 0 0 0 0 0 0 0 0 0 0 0 0 0 0 0 0 0 0 0 0 0 0 0 0 0 0 0
0 0 0 0 0 0 0 0 0 0 0 0 0 0 0 0 0 0 0 0 0 0 0 0 0 0 0 0 0 0 0 0 0 0 0 0 0 0 0 0 0 0 0
0 0 0 0 0 0 0 0 0 0 0 0 0 0 0 0 0 0 0 0 0 0 0 0 0 0 0 0 0 0 0 0 0 0 0 0 0 0 0 0 0 0 0
0 0 0 0 0 0 0 0 0 0 0 0 0 0 0 0 0 0 0 0 0 0 0 0 0 0 0 0 0 0 0 0 0 0 0 0 0 0 0 0 0 0 0
0 0 0 0 0 0 0 0 0 0 0 0 0 0 0 0 0 0 0 0 0 0 0 0 0 0 0 0 0 0 0 0 0 0 0 0 0 0 0 0 0 0 0
0 0 0 0 0 0 0 0 0 0 0 0 0 0 0 0 0 0 0 0 0 0 0 0 0 0 0 0 0 0 0 0 0 0 0 0 0 0 0 0 0 0 0
0 0 0 0 0 0 0 0 0 0 0 0 0 0 0 0 0 0 0 0 0 0 0 0 0 0 0 0 0 0 0 0 0 0 0 0 0 0 0 0 0 0 0
Wind_Speed
2 1 1 1 1 1 1 0 0 0 1 1 1 1 2 2 1 1 1 2 3 3 4 3 3 4 5 5 5 5 5 6 6 6 7 8 8 8 9 10 10 11 11
2 2 1 1 1 1 1 1 1 1 1 1 1 1 2 1 1 1 1 2 3 3 4 5 4 5 6 6 6 7 7 7 7 7 8 9 9 9 9 10 10 11 12
3 2 2 1 1 1 1 1 0 0 0 1 1 2 1 2 1 2 2 1 2 3 4 5 5 6 7 7 7 7 7 8 8 8 9 9 10 10 10 11 11 11 12
3 3 2 2 1 1 1 1 1 1 1 1 1 1 1 1 2 2 1 1 1 1 3 5 6 7 8 8 9 8 9 9 9 9 10 10 10 11 11 12 12 12 13
3 3 2 2 2 1 1 1 0 1 1 1 1 1 1 1 2 1 1 2 2 2 2 4 6 7 8 9 10 10 10 10 10 10 11 11 11 11 12 12 12 13 13
2 2 2 1 1 1 1 1 1 1 1 1 1 1 2 2 1 1 2 2 2 2 2 3 3 5 8 10 10 11 12 11 11 11 11 11 11 11 12 12 12 12 13
2 2 2 1 1 2 2 2 1 1 1 0 1 2 2 2 2 2 2 2 2 2 2 2 2 2 3 8 10 12 12 13 12 12 12 12 12 12 13 13 13 13 14
2 2 2 2 2 1 1 1 1 1 0 0 1 0 2 3 2 2 1 2 2 2 2 3 3 3 3 3 6 10 11 13 14 14 13 13 13 13 14 14 14 14 15
2 2 2 2 2 2 2 2 2 2 2 1 1 2 1 3 3 2 2 2 2 2 2 2 3 3 4 3 4 7 10 13 14 15 15 15 14 15 14 15 15 15 16
2 2 2 2 2 2 2 2 2 2 2 1 1 1 2 2 1 3 2 2 3 3 3 3 3 4 4 3 5 8 10 12 15 16 16 16 16 16 16 16 16 16 16
1 1 1 1 1 2 2 2 2 2 2 2 2 1 1 1 1 2 4 3 3 3 3 4 3 3 4 4 4 7 11 13 15 16 16 17 17 18 17 17 17 17 17
0 1 1 1 1 1 2 2 2 2 2 2 2 2 2 2 2 2 3 4 4 4 4 4 3 4 4 4 6 11 12 13 14 15 16 17 17 18 18 17 17 18 18
1 1 1 1 1 1 1 2 2 2 2 2 2 2 2 3 2 2 3 4 5 4 3 3 4 4 4 3 5 11 12 13 14 15 16 16 17 17 18 17 18 18 19
2 1 1 1 1 1 1 1 1 1 1 2 2 2 2 2 2 2 3 3 5 5 4 5 3 4 4 4 6 11 8 13 14 15 16 16 16 17 17 17 17 18 18
1 1 1 1 0 0 0 0 0 1 1 2 2 2 2 2 2 2 2 3 3 6 7 5 4 3 3 4 7 6 6 11 14 15 16 16 16 16 16 16 16 17 17
1 1 1 0 0 0 0 0 0 1 1 2 2 2 3 2 2 2 2 3 3 5 7 5 5 5 5 6 8 6 6 14 14 15 15 15 16 16 16 16 17 17 17
2 2 1 0 0 0 0 0 1 1 2 2 2 3 3 3 2 2 2 3 3 4 7 7 5 5 5 6 6 6 6 6 7 14 16 16 16 16 16 16 17 18 18
1 1 1 1 0 0 0 1 1 2 2 3 3 3 4 4 4 3 3 4 4 4 6 9 7 5 6 6 6 7 7 7 6 12 16 16 17 16 16 17 17 18 18
1 1 1 0 0 1 1 1 2 2 3 4 4 4 5 4 5 4 4 5 5 5 5 7 8 6 5 5 6 7 8 7 8 10 14 15 16 16 17 18 18 17 17
1 1 0 0 1 1 1 2 2 3 4 4 4 4 5 5 5 5 5 5 5 5 5 6 7 6 6 5 5 6 8 6 7 8 10 11 13 16 17 18 18 18 18
1 0 0 1 1 1 2 2 3 3 4 4 4 4 5 6 8 6 6 5 5 5 5 6 7 7 6 5 6 5 8 8 7 6 6 7 7 7 9 13 15 17 17
1 0 0 1 1 2 4 5 5 4 4 4 4 5 5 6 8 10 11 11 9 7 7 6 7 8 9 7 6 6 7 8 8 4 5 7 5 7 7 7 12 16 16
1 1 1 1 2 3 5 6 7 5 4 3 4 5 6 6 8 6 9 11 10 12 12 9 9 10 10 8 8 9 8 9 10 7 6 9 5 7 6 7 13 15 15
1 1 2 2 3 4 7 7 8 5 4 4 4 5 6 6 6 7 7 7 7 8 9 8 9 10 10 8 8 9 10 10 9 6 5 8 6 6 6 5 12 14 14
1 2 2 2 3 4 7 8 8 3 4 5 5 5 6 7 10 12 8 8 9 8 10 13 14 13 15 15 12 7 7 7 9 7 4 5 6 6 6 5 7 10 10
1 2 3 3 3 4 7 8 8 3 4 5 5 5 9 9 11 11 7 7 9 9 8 9 9 10 10 10 12 8 7 7 8 7 3 4 5 4 6 3 3 3 5
Wind_Direction
155 155 159 151 153 142 159 175 203 233 236 242 255 253 260 259 254 248 270 257 259 268 261 259 265 275 282 284 285 284 283 282 269 274 272 261 257 255 255 254 253 249 249
160 159 158 164 176 183 183 180 199 214 240 239 252 251 252 255 244 230 233 249 263 281 282 276 273 278 283 285 286 283 279 279 283 279 283 275 265 261 258 259 259 256 253
164 161 162 176 200 193 182 171 212 192 285 278 270 267 261 253 241 235 233 234 252 270 282 285 282 283 284 285 285 285 283 280 280 283 284 283 273 266 265 264 263 262 260
164 159 164 186 193 174 177 183 193 192 249 275 274 271 267 259 247 240 233 234 241 265 276 288 293 287 284 286 286 286 285 282 279 281 282 284 284 274 269 269 268 266 264
161 157 169 186 171 161 179 199 197 187 218 258 259 258 253 256 253 249 238 230 229 242 252 282 290 293 291 289 290 290 288 287 285 282 281 280 282 281 274 272 274 273 271
161 151 158 171 161 158 177 190 203 219 213 227 271 296 285 273 263 247 241 240 230 242 250 265 273 284 290 291 291 290 288 288 288 286 283 281 280 283 280 276 276 277 278
166 156 160 163 165 177 192 191 190 195 269 106 50 333 317 302 282 268 248 242 247 253 247 257 264 265 282 289 290 289 288 289 291 289 287 284 282 280 281 277 276 276 276
171 163 163 173 183 186 194 198 169 165 234 131 125 41 324 326 313 283 264 254 262 269 272 277 267 266 274 277 287 290 288 289 291 291 289 286 285 280 282 280 276 276 276
174 176 177 175 189 187 200 210 190 176 195 234 155 158 186 248 297 299 275 264 264 270 272 275 269 268 272 273 279 288 290 289 290 292 291 288 286 283 283 281 275 275 275
176 184 184 185 191 198 206 215 203 196 175 202 244 223 208 200 227 297 301 290 282 275 271 278 273 265 265 266 273 287 291 290 289 289 290 288 287 285 284 283 280 276 274
175 175 174 177 201 208 213 211 209 202 189 193 201 212 234 275 217 231 280 294 293 274 270 269 267 268 265 264 267 279 289 289 289 289 290 290 289 288 288 288 286 279 275
231 188 149 168 224 210 208 209 209 206 210 207 211 205 201 208 223 226 261 281 283 280 274 265 259 263 267 266 272 284 284 286 287 288 289 289 289 287 287 287 287 284 280
224 219 150 186 234 224 213 204 198 208 208 209 216 226 226 232 225 229 255 279 286 286 274 262 248 255 270 269 275 285 284 285 285 286 287 288 286 285 285 284 284 283 282
212 203 177 190 220 231 240 204 194 224 216 215 233 232 235 243 237 231 235 266 292 292 280 269 265 252 261 264 276 286 284 286 285 285 286 286 285 284 283 283 283 283 282
176 160 152 147 170 220 229 204 216 235 220 233 239 243 248 255 248 248 242 234 250 283 284 283 282 273 275 276 285 286 283 286 288 287 286 285 285 283 282 283 283 283 283
149 143 127 113 101 316 50 355 273 252 225 249 245 245 255 260 256 252 248 249 240 253 274 277 275 284 286 290 294 293 287 294 293 292 290 289 287 285 283 283 283 283 283
139 137 142 157 324 350 360 344 286 280 261 267 263 252 257 257 260 262 258 256 255 250 270 281 276 281 279 279 286 283 283 282 288 292 291 289 287 286 286 284 284 283 283
126 130 134 109 15 330 307 265 273 280 269 268 266 262 263 265 261 258 255 256 260 256 263 280 286 285 276 277 278 282 288 286 282 288 290 289 288 287 286 285 284 282 282
123 109 108 112 271 273 277 274 267 273 271 269 265 259 263 263 269 269 265 265 268 272 265 273 283 286 285 287 291 289 284 282 283 286 288 287 286 286 287 286 285 285 283
125 132 166 241 269 282 288 286 284 281 277 275 271 264 261 257 260 264 267 264 268 273 275 276 283 288 287 285 284 290 294 288 286 288 283 284 285 286 286 286 285 285 283
120 151 124 324 314 292 284 287 282 277 275 280 284 281 274 272 274 277 280 276 276 277 280 281 283 289 288 290 282 283 288 293 285 274 278 280 282 278 279 281 281 281 280
19 27 315 303 305 299 304 302 297 287 282 281 287 289 286 283 285 289 291 290 285 280 279 277 281 280 282 282 284 284 287 292 291 272 275 283 277 275 274 270 277 280 279
338 325 306 299 291 293 306 309 311 304 295 293 293 294 297 295 295 281 285 288 283 281 277 273 275 277 281 282 282 282 277 274 276 280 284 283 276 274 277 281 282 281 280
289 288 294 289 292 301 313 317 322 316 303 295 290 286 284 287 286 288 284 284 280 277 275 270 266 272 276 277 269 274 279 282 281 275 262 277 282 278 286 284 286 282 283
320 313 310 308 304 307 317 319 320 306 299 296 290 292 289 282 291 298 292 288 288 285 285 283 283 284 287 288 287 287 285 286 288 284 257 263 278 287 284 279 282 285 285
309 318 317 313 301 301 313 318 321 302 298 297 295 292 295 294 299 302 292 286 287 290 292 294 291 289 285 284 285 273 269 275 284 283 254 254 277 296 293 275 279 292 289